User: anonymous   Login
Location: Notre Dame Regional High School Observatory
(37.3056°N, 89.6097°W)
Time: 15:38:12
(UTC-05:00)
Language:

ATLAS 3B R/B - Orbit

View from above orbital plane
View from above orbital plane
View from above satellite
View from above satellite

Ground track
Ground track

The orbit data is extracted from the following two-line orbital elements,

1 28538U 05004B   17116.85613768 0.00000000  00000-0  00000-0 0    08
2 28538  63.8228  65.9734 0144000 180.5355 179.4645 13.43096753    04
Epoch (UTC): 26 April 2017 20:32:50
Eccentricity: 0.0144000
inclination: 63.8228°
perigee height: 990 km
apogee height: 1205 km
right ascension of ascending node: 65.9734°
argument of perigee: 180.5355°
revolutions per day: 13.43096753
mean anomaly at epoch: 179.4645°
orbit number at epoch: 0

The dashed part of the orbit path shows where the satellite is in the earth's shadow,  

DLR